SCP
0 0 0 0 0 0 0 0 0 0 0 0 0 0 0 0 0 -0 0 0 0 0 0 0 0 0 0 0 0 0 0 0 0 0 0 0 0 0 0 0 0 0 0 0
0 0 0 0 0 0 0 0 0 0 0 0 0 0 0 0 0 0 0 0 0 0 0 0 0 0 0 0 0 0 0 0 0 0 0 0 0 0 0 0 0 0 0 0
0 0 0 0 0 0 0 0 0 0 0 0 0 0 0 0 0 0 -0 -0 0 0 0 0 0 0 0 0 0 0 0 0 0 0 0 0 0 0 0 0 0 0 0 0
0 0 0 0 0 0 0 0 0 0 0 0 0 0 0 0 0 0 0 -0 -0 0 0 0 0 0 0 0 0 0 0 0 0 0 0 0 0 0 0 0 0 0 0 0
0 0 0 0 0 0 0 0 0 0 0 0 0 0 0 0 0 0 0 -0 -0 0 0 0 0 0 0 0 0 0 0 0 0 0 0 0 0 0 0 0 0 0 0 0
0 0 0 0 0 0 0 0 0 0 0 0 0 0 0 0 0 0 0 0 0 0 0 0 0 0 0 0 0 0 0 0 0 0 0 0 0 0 0 0 0 0 0 0
0 0 0 0 0 0 0 0 0 0 0 0 0 0 0 0 0 0 0 0 0 0 0 0 0 0 0 0 0 0 0 0 0 0 0 0 0 0 0 0 0 0 0 0
0 0 0 0 0 0 0 0 0 0 0 0 0 0 0 0 0 0 0 0 0 0 0 0 0 0 0 0 0 0 0 0 0 0 0 0 0 0 0 0 0 0 0 0
0 0 0 0 0 0 0 0 0 0 0 0 0 0 0 0 0 0 0 0 0 0 0 0 0 0 0 0 0 0 0 0 0 0 0 0 0 0 0 0 0 0 0 0
0 0 0 0 0 0 0 0 0 0 0 0 0 0 0 0 0 0 0 0 0 0 0 0 0 0 0 0 0 0 0 0 0 0 0 0 0 0 0 0 0 0 0 0
0 0 0 0 0 0 0 0 0 0 0 0 0 0 0 0 0 0 0 0 0 0 0 0 0 0 0 0 0 0 0 0 0 0 0 0 0 0 0 0 0 0 0 0
0 0 0 0 0 0 0 0 0 0 0 0 0 0 0 0 0 0 0 0 0 0 0 0 0 0 0 0 0 0 0 0 0 0 0 0 0 0 0 0 0 0 0 0
0 0 0 0 0 0 0 0 0 0 0 0 0 0 0 0 0 0 0 0 0 0 0 0 0 0 0 0 0 0 0 0 0 0 0 0 0 0 0 0 0 0 0 0
0 0 0 0 0 0 0 0 0 0 0 0 0 0 0 0 0 0 0 0 0 0 0 0 0 0 0 0 0 0 0 0 0 0 0 0 0 0 0 0 0 0 0 0
0 0 0 0 0 0 0 0 0 0 0 0 0 0 0 0 0 0 0 0 0 0 0 0 0 0 0 0 0 0 0 0 0 0 0 0 0 0 0 0 0 0 0 0
0 0 0 0 0 0 0 0 0 0 0 0 0 0 0 0 0 0 0 0 0 0 0 0 0 0 0 0 0 0 0 0 0 0 0 0 0 0 0 0 0 0 0 0
0 0 0 0 0 0 0 0 0 0 0 0 0 0 0 0 0 0 0 0 0 0 0 0 0 0 0 0 0 0 0 0 0 0 0 0 0 0 0 0 0 0 0 0
0 0 0 0 0 0 0 0 0 0 0 0 0 0 0 0 0 0 0 0 0 0 0 0 0 0 0 0 0 0 0 0 0 0 0 0 0 0 0 0 0 0 0 0
0 0 0 0 0 0 0 0 0 0 0 0 0 0 0 0 0 0 0 0 0 0 0 0 0 0 0 0 0 0 0 0 0 0 0 0 0 0 0 0 0 0 0 0
0 0 0 0 0 0 0 0 0 0 0 0 0 0 0 0 0 0 0 0 0 0 0 0 0 0 0 0 0 0 0 0 0 0 0 0 0 0 0 0 0 0 0 0
0 0 0 0 0 0 0 0 0 0 0 0 0 0 0 0 0 0 0 0 0 0 0 0 0 0 0 0 0 0 0 0 0 0 0 0 0 0 0 0 0 0 0 0
0 0 0 0 0 0 0 0 0 0 0 0 0 0 0 0 0 0 0 0 0 0 0 0 0 0 0 0 0 0 0 0 0 0 0 0 0 0 0 0 0 0 0 0
0 0 0 0 0 0 0 0 0 0 0 0 0 0 0 0 0 0 0 0 0 0 0 0 0 0 0 0 0 0 0 0 0 0 0 0 0 0 0 0 0 0 0 0
0 0 0 0 0 0 0 0 0 0 0 0 0 0 0 0 0 0 0 0 0 0 0 0 0 0 0 0 0 0 0 0 0 0 0 0 0 0 0 0 0 0 0 0
0 0 0 0 0 0 0 0 0 0 0 0 0 0 0 0 0 0 0 0 0 0 0 0 0 0 0 0 0 0 0 0 0 0 0 0 0 0 0 0 0 0 0 0
0 0 0 0 0 0 0 0 0 0 0 0 0 0 0 0 0 0 0 0 0 0 0 0 0 0 0 0 0 0 0 0 0 0 0 0 0 0 0 0 0 0 0 0
Wind_Speed_500mb
3 6 12 13 7 6 10 8 9 2 2 0 8 14 20 29 36 37 31 32 34 31 22 21 18 16 16 15 16 15 16 16 13 7 3 2 1 5 7 10 12 13 16 16
8 8 5 2 2 6 6 8 4 1 2 1 6 19 12 6 18 40 43 38 36 36 35 33 26 20 15 16 20 20 22 20 16 10 7 4 2 4 6 9 10 13 15 17
10 2 2 5 5 10 5 8 8 4 0 0 5 14 10 2 0 12 31 34 31 33 41 38 32 23 19 18 21 22 22 20 18 14 12 8 6 3 4 7 8 12 16 18
7 2 5 6 6 2 9 2 7 8 6 7 3 7 10 4 3 2 18 31 31 29 39 43 38 32 23 16 21 25 24 22 20 17 15 10 6 3 4 5 6 11 14 17
5 2 5 5 6 1 7 5 8 5 7 4 2 7 12 2 9 10 13 21 26 27 28 34 37 30 23 19 18 26 26 25 23 21 18 13 11 8 5 5 5 8 11 15
6 3 5 4 4 4 12 10 12 9 6 4 5 8 9 12 15 9 11 17 15 18 25 28 33 36 31 27 24 29 32 30 28 26 22 18 15 10 8 7 5 5 8 12
3 5 3 3 9 8 3 9 6 6 5 10 7 4 17 11 11 17 24 22 19 17 19 24 30 38 38 35 28 29 37 37 35 32 28 23 19 15 12 9 6 3 4 8
12 7 13 2 2 10 10 9 10 15 8 6 6 12 12 10 11 16 21 21 19 20 19 19 17 25 34 34 31 30 37 40 41 38 34 29 26 21 17 14 10 5 0 5
10 1 3 3 2 3 10 9 5 14 5 7 7 13 16 11 9 14 24 25 26 29 26 23 21 20 25 33 32 28 31 38 41 40 38 35 31 27 21 19 14 9 5 3
12 8 4 3 2 2 5 5 6 5 8 7 8 11 11 15 22 17 22 35 33 30 27 24 21 18 21 28 31 31 29 33 38 42 42 39 35 32 29 26 20 15 11 9
8 8 2 5 13 14 3 4 2 5 8 11 4 13 15 26 27 31 39 44 37 33 28 20 17 20 25 29 34 34 33 32 38 43 44 44 42 40 37 31 28 21 19 15
11 10 8 12 2 4 3 10 12 9 12 4 5 13 4 12 23 46 53 49 41 35 23 13 14 22 29 33 39 42 38 36 35 39 44 47 46 45 44 40 34 29 25 22
15 4 6 10 8 6 9 11 7 7 6 13 13 12 3 4 19 49 57 48 43 36 25 18 17 19 21 27 37 43 45 40 32 35 43 47 49 50 48 43 39 36 32 27
11 5 14 18 12 11 12 12 18 11 7 10 14 6 9 12 16 30 48 48 44 38 28 23 23 21 21 23 29 37 44 44 35 32 37 44 47 49 47 45 42 40 38 36
9 13 6 4 3 6 9 12 32 29 22 16 11 25 18 26 28 51 59 48 42 37 32 28 25 22 21 21 25 29 35 41 38 37 34 37 40 42 44 46 43 44 44 42
1 5 5 5 1 3 7 8 15 31 12 22 10 23 11 23 31 41 57 54 48 45 34 26 22 20 18 18 18 21 25 32 36 32 32 32 34 39 42 45 45 45 45 44
14 14 7 10 3 4 17 24 27 16 11 26 25 39 14 10 23 50 55 60 53 40 33 28 24 21 18 16 16 18 22 29 36 39 41 41 42 43 44 47 48 48 49 49
13 12 6 7 4 5 12 6 11 33 17 36 12 9 13 19 33 43 46 53 44 39 34 29 25 22 19 17 18 19 22 27 32 36 39 40 41 43 46 48 49 49 50 50
1 8 4 11 9 15 17 13 18 19 28 41 49 36 14 33 31 17 35 37 40 38 35 32 27 23 22 19 18 19 22 25 29 33 35 35 36 38 40 42 43 46 48 47
3 7 6 7 13 22 10 5 24 12 26 23 61 36 27 44 13 8 40 41 41 40 37 33 28 24 20 19 19 19 21 24 26 27 27 29 30 32 35 37 39 41 43 43
6 1 14 7 9 18 12 16 26 14 13 3 29 37 54 23 17 41 53 47 42 41 38 32 28 24 21 19 18 18 18 19 19 20 20 22 23 25 29 32 34 38 42 44
19 18 12 5 2 28 28 19 22 9 9 12 14 35 49 36 42 58 58 54 48 42 36 31 27 23 21 19 18 16 16 14 14 16 18 21 24 26 30 34 37 40 45 48
10 14 14 21 14 2 52 4 24 17 20 18 22 34 48 56 60 64 62 53 45 38 34 29 25 21 19 17 15 13 10 11 13 16 20 24 26 29 33 36 38 40 44 48
9 8 6 6 4 4 39 12 21 17 19 21 22 38 51 61 62 61 55 47 40 33 29 25 21 18 15 13 10 9 10 13 16 18 21 24 26 28 31 34 37 39 41 44
7 19 13 6 1 11 26 19 28 28 28 31 35 41 51 58 60 58 51 43 36 30 26 22 19 16 13 10 8 8 10 12 14 17 20 23 25 27 29 31 36 39 39 42
13 12 11 9 25 9 13 53 34 36 39 38 44 50 47 47 53 45 40 33 29 26 23 20 16 12 9 8 7 7 7 9 12 15 19 23 27 31 36 39 37 36 43 44
Wind_Direction_500mb
124 115 202 196 184 149 152 151 136 243 234 226 236 278 277 260 225 233 231 222 223 231 226 228 234 244 245 236 223 209 203 204 210 213 197 163 79 63 51 53 51 49 48 47
48 216 168 314 201 140 127 133 122 339 259 161 358 290 282 220 219 225 222 221 225 223 220 221 223 232 240 240 228 213 206 207 212 215 218 212 121 75 66 67 61 60 57 56
164 146 302 176 66 120 42 155 175 147 127 115 335 316 338 331 99 226 222 227 227 227 220 219 219 226 234 245 237 222 211 207 211 213 218 209 176 146 99 87 73 70 65 61
99 280 179 112 108 96 156 169 111 106 100 213 37 236 295 269 339 318 207 213 216 223 224 225 220 223 230 241 239 226 216 208 206 208 207 210 226 200 158 114 90 75 68 62
191 84 152 134 134 303 155 143 109 91 96 35 268 98 260 100 235 222 205 201 212 222 231 230 229 233 231 240 254 234 223 214 210 208 212 219 218 206 194 153 117 92 73 61
103 54 42 103 92 38 145 84 52 57 70 21 227 147 257 190 202 200 184 181 186 212 228 231 232 227 228 235 243 233 224 219 216 214 216 213 215 211 208 180 149 105 70 56
21 353 347 149 93 18 96 102 35 5 3 217 330 96 241 227 203 182 190 201 201 211 218 215 218 222 225 235 240 233 222 218 216 216 216 214 217 213 209 195 180 147 70 44
149 249 176 155 205 177 183 159 159 192 189 208 349 229 251 219 165 168 183 187 183 189 195 191 196 218 229 232 238 238 228 220 217 217 216 216 218 218 217 215 206 200 317 27
136 45 358 39 359 74 191 204 150 106 33 60 213 282 302 173 180 174 176 178 178 180 180 175 185 204 227 233 237 237 231 227 224 222 220 219 219 222 221 224 221 219 239 290
194 90 8 0 322 238 163 195 98 357 128 243 271 278 233 208 204 199 194 191 183 179 180 180 185 199 224 238 241 238 238 236 234 227 224 225 226 224 223 225 230 231 245 268
128 106 236 43 209 181 156 215 30 123 138 163 182 254 216 204 188 188 197 190 185 179 177 184 209 224 231 239 242 243 241 241 237 231 229 227 225 228 229 230 232 239 246 258
192 117 150 215 287 329 193 216 179 136 222 218 156 272 231 234 197 177 188 188 185 178 180 209 234 241 242 241 239 240 241 242 243 241 236 233 230 228 231 234 237 242 249 259
187 245 76 352 347 355 220 201 194 123 90 199 139 255 37 74 158 187 184 188 189 191 207 238 250 252 249 244 242 241 242 244 249 242 238 235 234 232 233 236 239 246 251 258
142 117 165 191 194 131 190 198 183 140 133 168 225 239 218 212 188 190 194 195 195 203 216 234 249 253 251 246 242 243 242 245 246 248 248 243 237 240 239 238 240 247 254 255
153 200 146 269 185 108 182 178 185 201 196 177 208 219 208 211 198 194 197 199 201 203 216 229 238 241 243 239 233 230 231 239 246 253 256 252 249 245 247 244 243 248 252 256
278 203 110 317 328 72 288 206 210 223 244 265 282 264 205 227 198 199 201 195 196 202 211 221 230 229 231 235 234 228 224 228 233 248 262 263 256 252 249 249 250 251 255 257
151 138 115 248 10 102 299 202 191 199 205 210 215 239 159 195 195 193 194 194 196 198 205 211 212 208 205 206 203 200 204 215 222 226 237 242 244 244 243 247 248 248 251 254
147 124 106 164 30 235 243 125 186 209 209 213 263 238 202 194 201 202 192 194 193 193 194 189 184 179 176 174 182 191 202 211 218 223 229 236 243 246 247 247 250 253 255 257
23 134 122 152 201 306 249 193 158 170 247 211 221 224 171 150 147 164 184 188 184 183 177 174 171 168 165 169 175 189 203 211 219 227 232 237 242 245 248 252 256 260 261 263
54 44 125 144 178 209 250 197 144 116 272 204 206 212 154 149 180 211 178 180 177 175 170 169 169 170 172 172 178 189 202 212 220 229 237 242 247 255 258 260 263 268 270 272
129 92 206 177 222 280 205 169 158 138 252 128 198 188 164 189 206 173 176 170 174 171 169 172 177 180 183 185 194 201 201 209 221 231 242 251 255 260 266 270 272 275 279 281
159 154 190 105 158 259 155 129 175 190 115 140 150 176 173 177 150 161 168 169 169 169 169 173 181 182 184 188 193 202 207 214 229 245 259 265 270 273 277 281 283 286 287 288
202 186 175 194 208 323 175 83 185 150 143 150 160 170 179 161 160 163 162 163 162 165 168 172 178 179 178 183 190 208 223 244 258 268 276 282 287 289 291 293 294 294 296 297
253 182 174 135 220 219 186 150 160 152 148 145 152 160 170 163 163 159 159 160 163 165 169 171 176 178 182 186 202 226 248 263 273 281 287 292 294 297 298 301 302 303 303 303
189 151 161 259 298 92 185 184 166 155 153 148 148 159 163 162 157 159 159 161 166 170 172 176 181 183 188 199 222 246 268 283 294 299 301 304 306 307 308 310 311 311 311 310
187 170 184 209 184 156 173 194 173 161 157 156 156 147 152 162 158 164 161 165 166 167 168 174 182 193 208 231 255 271 287 299 306 310 311 311 312 314 314 312 308 310 310 308
Wind_Speed_850mb
3 6 12 13 7 6 10 8 9 2 2 0 8 14 20 29 36 37 31 32 34 31 22 21 18 16 16 15 16 15 16 16 13 7 3 2 1 5 7 10 12 13 16 16
8 8 5 2 2 6 6 8 4 1 2 1 6 19 12 6 18 40 43 38 36 36 35 33 26 20 15 16 20 20 22 20 16 10 7 4 2 4 6 9 10 13 15 17
10 2 2 5 5 10 5 8 8 4 0 0 5 14 10 2 0 12 31 34 31 33 41 38 32 23 19 18 21 22 22 20 18 14 12 8 6 3 4 7 8 12 16 18
7 2 5 6 6 2 9 2 7 8 6 7 3 7 10 4 3 2 18 31 31 29 39 43 38 32 23 16 21 25 24 22 20 17 15 10 6 3 4 5 6 11 14 17
5 2 5 5 6 1 7 5 8 5 7 4 2 7 12 2 9 10 13 21 26 27 28 34 37 30 23 19 18 26 26 25 23 21 18 13 11 8 5 5 5 8 11 15
6 3 5 4 4 4 12 10 12 9 6 4 5 8 9 12 15 9 11 17 15 18 25 28 33 36 31 27 24 29 32 30 28 26 22 18 15 10 8 7 5 5 8 12
3 5 3 3 9 8 3 9 6 6 5 10 7 4 17 11 11 17 24 22 19 17 19 24 30 38 38 35 28 29 37 37 35 32 28 23 19 15 12 9 6 3 4 8
12 7 13 2 2 10 10 9 10 15 8 6 6 12 12 10 11 16 21 21 19 20 19 19 17 25 34 34 31 30 37 40 41 38 34 29 26 21 17 14 10 5 0 5
10 1 3 3 2 3 10 9 5 14 5 7 7 13 16 11 9 14 24 25 26 29 26 23 21 20 25 33 32 28 31 38 41 40 38 35 31 27 21 19 14 9 5 3
12 8 4 3 2 2 5 5 6 5 8 7 8 11 11 15 22 17 22 35 33 30 27 24 21 18 21 28 31 31 29 33 38 42 42 39 35 32 29 26 20 15 11 9
8 8 2 5 13 14 3 4 2 5 8 11 4 13 15 26 27 31 39 44 37 33 28 20 17 20 25 29 34 34 33 32 38 43 44 44 42 40 37 31 28 21 19 15
11 10 8 12 2 4 3 10 12 9 12 4 5 13 4 12 23 46 53 49 41 35 23 13 14 22 29 33 39 42 38 36 35 39 44 47 46 45 44 40 34 29 25 22
15 4 6 10 8 6 9 11 7 7 6 13 13 12 3 4 19 49 57 48 43 36 25 18 17 19 21 27 37 43 45 40 32 35 43 47 49 50 48 43 39 36 32 27
11 5 14 18 12 11 12 12 18 11 7 10 14 6 9 12 16 30 48 48 44 38 28 23 23 21 21 23 29 37 44 44 35 32 37 44 47 49 47 45 42 40 38 36
9 13 6 4 3 6 9 12 32 29 22 16 11 25 18 26 28 51 59 48 42 37 32 28 25 22 21 21 25 29 35 41 38 37 34 37 40 42 44 46 43 44 44 42
1 5 5 5 1 3 7 8 15 31 12 22 10 23 11 23 31 41 57 54 48 45 34 26 22 20 18 18 18 21 25 32 36 32 32 32 34 39 42 45 45 45 45 44
14 14 7 10 3 4 17 24 27 16 11 26 25 39 14 10 23 50 55 60 53 40 33 28 24 21 18 16 16 18 22 29 36 39 41 41 42 43 44 47 48 48 49 49
13 12 6 7 4 5 12 6 11 33 17 36 12 9 13 19 33 43 46 53 44 39 34 29 25 22 19 17 18 19 22 27 32 36 39 40 41 43 46 48 49 49 50 50
1 8 4 11 9 15 17 13 18 19 28 41 49 36 14 33 31 17 35 37 40 38 35 32 27 23 22 19 18 19 22 25 29 33 35 35 36 38 40 42 43 46 48 47
3 7 6 7 13 22 10 5 24 12 26 23 61 36 27 44 13 8 40 41 41 40 37 33 28 24 20 19 19 19 21 24 26 27 27 29 30 32 35 37 39 41 43 43
6 1 14 7 9 18 12 16 26 14 13 3 29 37 54 23 17 41 53 47 42 41 38 32 28 24 21 19 18 18 18 19 19 20 20 22 23 25 29 32 34 38 42 44
19 18 12 5 2 28 28 19 22 9 9 12 14 35 49 36 42 58 58 54 48 42 36 31 27 23 21 19 18 16 16 14 14 16 18 21 24 26 30 34 37 40 45 48
10 14 14 21 14 2 52 4 24 17 20 18 22 34 48 56 60 64 62 53 45 38 34 29 25 21 19 17 15 13 10 11 13 16 20 24 26 29 33 36 38 40 44 48
9 8 6 6 4 4 39 12 21 17 19 21 22 38 51 61 62 61 55 47 40 33 29 25 21 18 15 13 10 9 10 13 16 18 21 24 26 28 31 34 37 39 41 44
7 19 13 6 1 11 26 19 28 28 28 31 35 41 51 58 60 58 51 43 36 30 26 22 19 16 13 10 8 8 10 12 14 17 20 23 25 27 29 31 36 39 39 42
13 12 11 9 25 9 13 53 34 36 39 38 44 50 47 47 53 45 40 33 29 26 23 20 16 12 9 8 7 7 7 9 12 15 19 23 27 31 36 39 37 36 43 44
Wind_Direction_850mb
124 115 202 196 184 149 152 151 136 243 234 226 236 278 277 260 225 233 231 222 223 231 226 228 234 244 245 236 223 209 203 204 210 213 197 163 79 63 51 53 51 49 48 47
48 216 168 314 201 140 127 133 122 339 259 161 358 290 282 220 219 225 222 221 225 223 220 221 223 232 240 240 228 213 206 207 212 215 218 212 121 75 66 67 61 60 57 56
164 146 302 176 66 120 42 155 175 147 127 115 335 316 338 331 99 226 222 227 227 227 220 219 219 226 234 245 237 222 211 207 211 213 218 209 176 146 99 87 73 70 65 61
99 280 179 112 108 96 156 169 111 106 100 213 37 236 295 269 339 318 207 213 216 223 224 225 220 223 230 241 239 226 216 208 206 208 207 210 226 200 158 114 90 75 68 62
191 84 152 134 134 303 155 143 109 91 96 35 268 98 260 100 235 222 205 201 212 222 231 230 229 233 231 240 254 234 223 214 210 208 212 219 218 206 194 153 117 92 73 61
103 54 42 103 92 38 145 84 52 57 70 21 227 147 257 190 202 200 184 181 186 212 228 231 232 227 228 235 243 233 224 219 216 214 216 213 215 211 208 180 149 105 70 56
21 353 347 149 93 18 96 102 35 5 3 217 330 96 241 227 203 182 190 201 201 211 218 215 218 222 225 235 240 233 222 218 216 216 216 214 217 213 209 195 180 147 70 44
149 249 176 155 205 177 183 159 159 192 189 208 349 229 251 219 165 168 183 187 183 189 195 191 196 218 229 232 238 238 228 220 217 217 216 216 218 218 217 215 206 200 317 27
136 45 358 39 359 74 191 204 150 106 33 60 213 282 302 173 180 174 176 178 178 180 180 175 185 204 227 233 237 237 231 227 224 222 220 219 219 222 221 224 221 219 239 290
194 90 8 0 322 238 163 195 98 357 128 243 271 278 233 208 204 199 194 191 183 179 180 180 185 199 224 238 241 238 238 236 234 227 224 225 226 224 223 225 230 231 245 268
128 106 236 43 209 181 156 215 30 123 138 163 182 254 216 204 188 188 197 190 185 179 177 184 209 224 231 239 242 243 241 241 237 231 229 227 225 228 229 230 232 239 246 258
192 117 150 215 287 329 193 216 179 136 222 218 156 272 231 234 197 177 188 188 185 178 180 209 234 241 242 241 239 240 241 242 243 241 236 233 230 228 231 234 237 242 249 259
187 245 76 352 347 355 220 201 194 123 90 199 139 255 37 74 158 187 184 188 189 191 207 238 250 252 249 244 242 241 242 244 249 242 238 235 234 232 233 236 239 246 251 258
142 117 165 191 194 131 190 198 183 140 133 168 225 239 218 212 188 190 194 195 195 203 216 234 249 253 251 246 242 243 242 245 246 248 248 243 237 240 239 238 240 247 254 255
153 200 146 269 185 108 182 178 185 201 196 177 208 219 208 211 198 194 197 199 201 203 216 229 238 241 243 239 233 230 231 239 246 253 256 252 249 245 247 244 243 248 252 256
278 203 110 317 328 72 288 206 210 223 244 265 282 264 205 227 198 199 201 195 196 202 211 221 230 229 231 235 234 228 224 228 233 248 262 263 256 252 249 249 250 251 255 257
151 138 115 248 10 102 299 202 191 199 205 210 215 239 159 195 195 193 194 194 196 198 205 211 212 208 205 206 203 200 204 215 222 226 237 242 244 244 243 247 248 248 251 254
147 124 106 164 30 235 243 125 186 209 209 213 263 238 202 194 201 202 192 194 193 193 194 189 184 179 176 174 182 191 202 211 218 223 229 236 243 246 247 247 250 253 255 257
23 134 122 152 201 306 249 193 158 170 247 211 221 224 171 150 147 164 184 188 184 183 177 174 171 168 165 169 175 189 203 211 219 227 232 237 242 245 248 252 256 260 261 263
54 44 125 144 178 209 250 197 144 116 272 204 206 212 154 149 180 211 178 180 177 175 170 169 169 170 172 172 178 189 202 212 220 229 237 242 247 255 258 260 263 268 270 272
129 92 206 177 222 280 205 169 158 138 252 128 198 188 164 189 206 173 176 170 174 171 169 172 177 180 183 185 194 201 201 209 221 231 242 251 255 260 266 270 272 275 279 281
159 154 190 105 158 259 155 129 175 190 115 140 150 176 173 177 150 161 168 169 169 169 169 173 181 182 184 188 193 202 207 214 229 245 259 265 270 273 277 281 283 286 287 288
202 186 175 194 208 323 175 83 185 150 143 150 160 170 179 161 160 163 162 163 162 165 168 172 178 179 178 183 190 208 223 244 258 268 276 282 287 289 291 293 294 294 296 297
253 182 174 135 220 219 186 150 160 152 148 145 152 160 170 163 163 159 159 160 163 165 169 171 176 178 182 186 202 226 248 263 273 281 287 292 294 297 298 301 302 303 303 303
189 151 161 259 298 92 185 184 166 155 153 148 148 159 163 162 157 159 159 161 166 170 172 176 181 183 188 199 222 246 268 283 294 299 301 304 306 307 308 310 311 311 311 310
187 170 184 209 184 156 173 194 173 161 157 156 156 147 152 162 158 164 161 165 166 167 168 174 182 193 208 231 255 271 287 299 306 310 311 311 312 314 314 312 308 310 310 308